Regional Weather Roundup
Issued by NWS Binghamton, NY

Home | Current Version | Previous Version | Text Only | Print | Product List | Glossary On
Versions: 1 2 3 4 5 6 7 8 9 10 11 12 13 14 15 16 17 18 19 20 21 22 23 24 25 26 27 28 29 30 31 32 33 34 35 36 37 38 39 40 41 42 43 44 45 46
000
ASUS41 KBGM 310310
RWRBGM
RWRBGM
BINGHAMTON REGIONAL WEATHER ROUNDUP
NATIONAL WEATHER SERVICE BINGHAMTON NY
1100 PM EDT THU JUL 30 2015

Note: "fair" indicates few or no clouds below 12,000 feet with no
significant weather and/or obstructions to visibility.

* = Station(s) that does not report precipitation, such as rain,
snow, etc, also no thunder or fog.

!NYZ009-015>018-022>025-036-037-044>046-055>057-062-310400
...CENTRAL NEW YORK...

CITY           SKY/WX    TMP DP  RH WIND       PRES   REMARKS
BINGHAMTON     PTCLDY    69  56  62 W6        29.93S
CORTLAND       FAIR      64  61  88 SW3       29.92S
DANSVILLE      CLEAR     73  57  57 SW5       29.91S
ELMIRA         CLEAR     67  60  78 SW5       29.91S
ITHACA         PTCLDY    70  58  65 W7        29.92S
HORNELL          N/A     63  57  82 E3        29.97S
MONTICELLO     CLEAR     66  61  82 NW3       29.92S
NORWICH        PTCLDY    64  61  88 CALM      29.91R
ONEONTA        CLEAR     66  57  72 W6        29.92S
PENN YAN       CLEAR     70  59  68 SW7       29.91S
ROME           PTCLDY    65  61  87 CALM      29.85S
SIDNEY         PTCLDY    64  64 100 SW3       29.91R
SYRACUSE       MOCLDY    75  61  61 SW13      29.84S
$$

!PAZ038>040-043-044-047-048-072-310400
...NORTHEAST PENNSYLVANIA...

CITY           SKY/WX    TMP DP  RH WIND       PRES   REMARKS
HAZLETON       PTCLDY    73  59  60 CALM      29.97R
SCRANTON       PTCLDY    71  63  75 E5        29.90R
$$
&&
KEY
WCI = WIND CHILL INDEX
VSB = VISIBILITY
HX  = HEAT INDEX
$$



USA.gov is the U.S. government's official web portal to all federal, state and local government web resources and services.